Flag for Spain Weather past 2 weeks in Sevilla, Spain

Now
41 °F

Passing clouds.


Feels Like: 39 °F
Forecast: 39 / 63 °F
Wind: 3 mph from Northeast

Location: Sevilla / San Pablo

Current Time: Jan 27, 2015 at 10:11:34 AM

Latest Report: Jan 27, 2015 at 9:30 AM


Visibility: N/A

Pressure: 30.36 "Hg

Humidity: 87%

Dew point: 37 °F

Location of SevillaLocation

Historic Weather in Sevilla — Graph

°F

Sevilla temperature yesterday

Maximum temperature yesterday: 64 °F (at 4:00 PM)
Minimum temperature yesterday: 37 °F (at 6:30 AM)
Average temperature yesterday: 49 °F

Past Weeks' High & Low Weather Summary

 TemperatureHumidityPressure
High66 °F (Jan 12, 3:00 PM)100% (Jan 13, 5:30 AM)30.48 "Hg (Jan 13, 5:30 AM)
Low34 °F (Jan 20, 6:30 AM)27% (Jan 26, 3:00 PM)29.68 "Hg (Jan 19, 3:30 AM)
Average49 °F76%30.17 "Hg
* Reported Jan 12 9:00 AM — Jan 27 9:00 AM, Sevilla, Weather by CustomWeather, © 2014

Note: Actual official high and low records may vary slightly from our data, if they occured in-between our weather recording intervals... More about our weather records

Advertising

Sevilla weather history for previous 24 hours

 ConditionsComfort  
Time TempWeatherWind HumidityBarometerVisibility
9:00 AM
Jan 27
37 °FSunny.No wind93%30.36 "Hg10 mi
8:30 AM36 °FClear.2 mph93%30.36 "Hg10 mi
8:00 AM37 °FClear.1 mph93%30.36 "Hg10 mi
7:30 AM39 °FClear.3 mph93%30.33 "Hg10 mi
7:00 AM37 °FClear.1 mph93%30.33 "Hg10 mi
6:30 AM39 °FClear.No wind87%30.33 "Hg10 mi
6:00 AM39 °FClear.1 mph93%30.33 "Hg10 mi
5:30 AM39 °FClear.No wind93%30.33 "Hg10 mi
5:00 AM37 °FClear.No wind93%30.33 "Hg10 mi
4:30 AM41 °FClear.No wind87%30.33 "Hg10 mi
3:30 AM43 °FClear.2 mph87%30.36 "Hg10 mi
1:00 AM43 °FClear.2 mph87%30.36 "Hg10 mi
12:30 AM43 °FClear.1 mph87%30.36 "Hg10 mi
12:00 AM43 °FClear.1 mph87%30.36 "Hg10 mi
11:30 PM
Jan 26
45 °FClear.No wind81%30.36 "Hg10 mi
11:00 PM46 °FClear.1 mph82%30.36 "Hg10 mi
10:30 PM45 °FClear.2 mph87%30.36 "Hg10 mi
10:00 PM46 °FClear.1 mph82%30.36 "Hg10 mi
9:30 PM46 °FClear.3 mph82%30.33 "Hg10 mi
9:00 PM48 °FClear.1 mph76%30.33 "Hg10 mi
8:30 PM48 °FClear.1 mph76%30.33 "Hg10 mi
8:00 PM55 °FClear.No wind51%30.33 "Hg10 mi
7:30 PM55 °FClear.No wind51%30.33 "Hg10 mi
7:00 PM57 °FClear.2 mph44%30.33 "Hg10 mi
6:30 PM59 °FSunny.1 mph48%30.30 "Hg10 mi
6:00 PM63 °FSunny.2 mph37%30.30 "Hg10 mi
5:30 PM64 °FSunny.No wind32%30.30 "Hg10 mi
5:00 PM64 °FSunny.2 mph30%30.30 "Hg10 mi
4:30 PM64 °FSunny.1 mph30%30.30 "Hg10 mi
4:00 PM64 °FSunny.2 mph30%30.30 "Hg10 mi
3:30 PM63 °FPassing clouds.3 mph30%30.30 "HgN/A
3:00 PM63 °FPassing clouds.5 mph27%30.33 "HgN/A
2:30 PM63 °FPassing clouds.3 mph32%30.33 "HgN/A
2:00 PM61 °FPassing clouds.5 mph39%30.33 "HgN/A
1:30 PM59 °FPassing clouds.6 mph39%30.36 "HgN/A
1:00 PM57 °FPassing clouds.7 mph39%30.36 "HgN/A
12:30 PM55 °FPassing clouds.5 mph55%30.36 "HgN/A
12:00 PM52 °FSunny.7 mph58%30.36 "Hg10 mi
11:30 AM50 °FPassing clouds.6 mph67%30.36 "HgN/A
11:00 AM48 °FSunny.7 mph66%30.36 "Hg10 mi
10:30 AM45 °FSunny.5 mph81%30.36 "Hg10 mi
10:00 AM43 °FSunny.2 mph87%30.36 "Hg10 mi
Weather by CustomWeather, © 2014

See weather overviewHow to use our weather pages